Time,TemperatureF,DewpointF,PressureIn,WindDirection,WindDirectionDegrees,WindSpeedMPH,WindSpeedGustMPH,Humidity,HourlyPrecipIn,Conditions,Clouds,dailyrainin,SoftwareType,DateUTC
2013-05-03 05:19:00,39.2,16.9,29.65,ENE,68,0.0,0.0,40,0.00,,---,0.00,VWS V14.01,2013-05-03 09:19:00,
2013-05-03 05:20:00,39.2,16.9,29.65,ENE,68,0.0,0.0,40,0.00,,---,0.00,VWS V14.01,2013-05-03 09:20:00,
2013-05-03 05:21:00,39.2,16.9,29.65,ENE,68,0.0,0.0,40,0.00,,---,0.00,VWS V14.01,2013-05-03 09:21:00,
2013-05-03 05:22:00,39.2,16.9,29.65,ENE,68,0.0,0.0,40,0.00,,---,0.00,VWS V14.01,2013-05-03 09:22:00,
2013-05-03 05:23:00,39.0,16.8,29.65,ENE,68,0.0,0.0,40,0.00,,---,0.00,VWS V14.01,2013-05-03 09:23:00,
2013-05-03 05:24:00,38.8,16.6,29.65,ENE,68,0.0,0.0,40,0.00,,---,0.00,VWS V14.01,2013-05-03 09:24:00,
2013-05-03 05:25:00,38.8,16.6,29.65,ENE,68,0.0,0.0,40,0.00,,---,0.00,VWS V14.01,2013-05-03 09:25:00,
2013-05-03 05:26:00,38.8,16.6,29.65,ENE,68,0.0,0.0,40,0.00,,---,0.00,VWS V14.01,2013-05-03 09:26:00,
2013-05-03 05:27:00,38.8,16.6,29.65,ENE,68,0.0,0.0,40,0.00,,---,0.00,VWS V14.01,2013-05-03 09:27:00,
2013-05-03 05:28:00,38.8,16.6,29.65,ENE,68,0.0,0.0,40,0.00,,---,0.00,VWS V14.01,2013-05-03 09:28:00,
2013-05-03 05:29:00,38.8,16.6,29.65,ENE,68,0.0,0.0,40,0.00,,---,0.00,VWS V14.01,2013-05-03 09:29:00,
2013-05-03 05:30:00,38.7,16.4,29.65,ENE,68,0.0,0.0,40,0.00,,---,0.00,VWS V14.01,2013-05-03 09:30:00,
2013-05-03 05:31:00,38.7,16.4,29.65,ENE,68,0.0,0.0,40,0.00,,---,0.00,VWS V14.01,2013-05-03 09:31:00,
2013-05-03 05:32:00,38.7,16.4,29.65,ENE,68,0.0,0.0,40,0.00,,---,0.00,VWS V14.01,2013-05-03 09:32:00,
2013-05-03 05:33:00,38.7,16.4,29.65,ENE,68,0.0,0.0,40,0.00,,---,0.00,VWS V14.01,2013-05-03 09:33:00,
2013-05-03 05:34:00,38.7,16.4,29.65,ENE,68,0.0,0.0,40,0.00,,---,0.00,VWS V14.01,2013-05-03 09:34:00,
2013-05-03 05:35:00,38.5,16.3,29.65,ENE,68,0.0,0.0,40,0.00,,---,0.00,VWS V14.01,2013-05-03 09:35:00,
2013-05-03 05:36:00,38.5,16.3,29.65,ENE,68,0.0,0.0,40,0.00,,---,0.00,VWS V14.01,2013-05-03 09:36:00,
2013-05-03 05:37:00,38.5,16.8,29.65,ENE,68,0.0,0.0,41,0.00,,---,0.00,VWS V14.01,2013-05-03 09:37:00,
2013-05-03 05:38:00,38.5,16.8,29.65,ENE,68,0.0,0.0,41,0.00,,---,0.00,VWS V14.01,2013-05-03 09:38:00,
2013-05-03 05:39:00,38.5,16.8,29.65,ENE,68,0.0,0.0,41,0.00,,---,0.00,VWS V14.01,2013-05-03 09:39:00,
2013-05-03 05:40:00,38.5,16.8,29.65,ENE,68,0.0,0.0,41,0.00,,---,0.00,VWS V14.01,2013-05-03 09:40:00,
2013-05-03 05:41:00,38.5,16.8,29.65,ENE,68,0.0,0.0,41,0.00,,---,0.00,VWS V14.01,2013-05-03 09:41:00,
2013-05-03 05:42:00,38.3,16.7,29.65,ENE,68,0.0,0.0,41,0.00,,---,0.00,VWS V14.01,2013-05-03 09:42:00,
2013-05-03 05:43:00,38.3,16.7,29.65,ENE,68,0.0,0.0,41,0.00,,---,0.00,VWS V14.01,2013-05-03 09:43:00,
2013-05-03 05:44:00,38.1,16.5,29.65,ENE,68,0.0,0.0,41,0.00,,---,0.00,VWS V14.01,2013-05-03 09:44:00,
2013-05-03 05:45:00,38.1,16.5,29.65,ENE,68,0.0,0.0,41,0.00,,---,0.00,VWS V14.01,2013-05-03 09:45:00,
2013-05-03 05:46:00,38.1,16.5,29.65,ENE,68,0.0,0.0,41,0.00,,---,0.00,VWS V14.01,2013-05-03 09:46:00,
2013-05-03 05:47:00,38.1,16.5,29.65,ENE,68,0.0,0.0,41,0.00,,---,0.00,VWS V14.01,2013-05-03 09:47:00,
2013-05-03 05:48:00,38.1,16.5,29.65,ENE,68,0.0,0.0,41,0.00,,---,0.00,VWS V14.01,2013-05-03 09:48:00,
2013-05-03 05:49:00,38.1,16.5,29.65,ENE,68,0.0,0.0,41,0.00,,---,0.00,VWS V14.01,2013-05-03 09:49:00,
2013-05-03 05:50:00,38.1,16.5,29.65,ENE,68,0.0,0.0,41,0.00,,---,0.00,VWS V14.01,2013-05-03 09:50:00,
2013-05-03 05:51:00,37.9,16.4,29.65,ENE,68,0.0,0.0,41,0.00,,---,0.00,VWS V14.01,2013-05-03 09:51:00,
2013-05-03 05:52:00,37.9,16.4,29.65,ENE,68,0.0,0.0,41,0.00,,---,0.00,VWS V14.01,2013-05-03 09:52:00,
2013-05-03 05:53:00,37.9,16.4,29.65,ENE,68,0.0,0.0,41,0.00,,---,0.00,VWS V14.01,2013-05-03 09:53:00,
2013-05-03 05:54:00,37.9,16.4,29.68,ENE,68,0.0,0.0,41,0.00,,---,0.00,VWS V14.01,2013-05-03 09:54:00,
2013-05-03 05:55:00,37.9,16.4,29.68,ENE,68,0.0,0.0,41,0.00,,---,0.00,VWS V14.01,2013-05-03 09:55:00,
2013-05-03 05:56:00,37.9,16.4,29.68,ENE,68,0.0,0.0,41,0.00,,---,0.00,VWS V14.01,2013-05-03 09:56:00,
2013-05-03 05:57:00,37.9,16.4,29.68,ENE,68,0.0,0.0,41,0.00,,---,0.00,VWS V14.01,2013-05-03 09:57:00,
2013-05-03 05:58:00,37.9,16.4,29.68,ENE,68,0.0,0.0,41,0.00,,---,0.00,VWS V14.01,2013-05-03 09:58:00,
2013-05-03 05:59:00,37.9,16.4,29.68,ENE,68,0.0,0.0,41,0.00,,---,0.00,VWS V14.01,2013-05-03 09:59:00,
2013-05-03 06:00:00,37.8,16.2,29.68,ENE,68,0.0,0.0,41,0.00,,---,0.00,VWS V14.01,2013-05-03 10:00:00,
2013-05-03 06:01:00,37.8,16.2,29.68,ENE,68,0.0,0.0,41,0.00,,---,0.00,VWS V14.01,2013-05-03 10:01:00,
2013-05-03 06:02:00,37.8,16.2,29.68,ENE,68,0.0,0.0,41,0.00,,---,0.00,VWS V14.01,2013-05-03 10:02:00,
2013-05-03 06:03:00,37.8,16.2,29.68,ENE,68,0.0,0.0,41,0.00,,---,0.00,VWS V14.01,2013-05-03 10:03:00,
2013-05-03 06:04:00,37.6,16.6,29.68,ENE,68,0.0,0.0,42,0.00,,---,0.00,VWS V14.01,2013-05-03 10:04:00,
2013-05-03 06:05:00,37.6,16.6,29.68,ENE,68,0.0,0.0,42,0.00,,---,0.00,VWS V14.01,2013-05-03 10:05:00,
2013-05-03 06:06:00,37.8,17.3,29.68,ENE,68,0.0,0.0,43,0.00,,---,0.00,VWS V14.01,2013-05-03 10:06:00,
2013-05-03 06:07:00,37.6,16.6,29.68,ENE,68,0.0,0.0,42,0.00,,---,0.00,VWS V14.01,2013-05-03 10:07:00,
2013-05-03 06:08:00,37.6,16.6,29.68,ENE,68,0.0,0.0,42,0.00,,---,0.00,VWS V14.01,2013-05-03 10:08:00,
2013-05-03 06:09:00,37.6,17.1,29.68,ENE,68,0.0,0.0,43,0.00,,---,0.00,VWS V14.01,2013-05-03 10:09:00,
2013-05-03 06:10:00,37.6,17.1,29.68,ENE,68,0.0,0.0,43,0.00,,---,0.00,VWS V14.01,2013-05-03 10:10:00,
2013-05-03 06:11:00,37.6,16.6,29.68,ENE,68,0.0,0.0,42,0.00,,---,0.00,VWS V14.01,2013-05-03 10:11:00,
2013-05-03 06:12:00,37.6,16.6,29.68,ENE,68,0.0,0.0,42,0.00,,---,0.00,VWS V14.01,2013-05-03 10:12:00,
2013-05-03 06:13:00,37.6,16.6,29.68,ENE,68,0.0,0.0,42,0.00,,---,0.00,VWS V14.01,2013-05-03 10:13:00,
2013-05-03 06:14:00,37.6,16.6,29.68,ENE,68,0.0,0.0,42,0.00,,---,0.00,VWS V14.01,2013-05-03 10:14:00,
2013-05-03 06:15:00,37.6,16.6,29.68,ENE,68,0.0,0.0,42,0.00,,---,0.00,VWS V14.01,2013-05-03 10:15:00,
2013-05-03 06:16:00,37.8,16.8,29.68,ENE,68,0.0,0.0,42,0.00,,---,0.00,VWS V14.01,2013-05-03 10:16:00,
2013-05-03 06:17:00,37.8,16.8,29.68,ENE,68,0.0,0.0,42,0.00,,---,0.00,VWS V14.01,2013-05-03 10:17:00,
2013-05-03 06:18:00,37.8,16.8,29.68,ENE,68,0.0,0.0,42,0.00,,---,0.00,VWS V14.01,2013-05-03 10:18:00,
2013-05-03 06:19:00,37.8,16.8,29.68,ENE,68,0.0,0.0,42,0.00,,---,0.00,VWS V14.01,2013-05-03 10:19:00,
2013-05-03 06:20:00,37.8,16.8,29.68,ENE,68,0.0,0.0,42,0.00,,---,0.00,VWS V14.01,2013-05-03 10:20:00,
2013-05-03 06:21:00,37.8,16.8,29.68,ENE,68,0.0,0.0,42,0.00,,---,0.00,VWS V14.01,2013-05-03 10:21:00,
2013-05-03 06:22:00,37.8,16.8,29.68,ENE,68,0.0,0.0,42,0.00,,---,0.00,VWS V14.01,2013-05-03 10:22:00,
2013-05-03 06:23:00,37.8,16.8,29.68,ENE,68,0.0,0.0,42,0.00,,---,0.00,VWS V14.01,2013-05-03 10:23:00,
2013-05-03 06:24:00,37.8,16.8,29.68,ENE,68,0.0,0.0,42,0.00,,---,0.00,VWS V14.01,2013-05-03 10:24:00,
2013-05-03 06:25:00,37.8,17.3,29.68,ENE,68,0.0,0.0,43,0.00,,---,0.00,VWS V14.01,2013-05-03 10:25:00,
2013-05-03 06:26:00,37.8,17.3,29.68,ENE,68,0.0,0.0,43,0.00,,---,0.00,VWS V14.01,2013-05-03 10:26:00,
2013-05-03 06:27:00,37.9,18.0,29.68,ENE,68,0.0,0.0,44,0.00,,---,0.00,VWS V14.01,2013-05-03 10:27:00,
2013-05-03 06:28:00,37.9,17.5,29.68,ENE,68,0.0,0.0,43,0.00,,---,0.00,VWS V14.01,2013-05-03 10:28:00,
2013-05-03 06:29:00,37.9,17.5,29.68,ENE,68,0.0,0.0,43,0.00,,---,0.00,VWS V14.01,2013-05-03 10:29:00,
2013-05-03 06:30:00,38.1,18.1,29.68,ENE,68,0.0,0.0,44,0.00,,---,0.00,VWS V14.01,2013-05-03 10:30:00,
2013-05-03 06:31:00,38.1,18.1,29.68,ENE,68,0.0,0.0,44,0.00,,---,0.00,VWS V14.01,2013-05-03 10:31:00,
2013-05-03 06:32:00,38.1,17.6,29.68,ENE,68,0.0,0.0,43,0.00,,---,0.00,VWS V14.01,2013-05-03 10:32:00,
2013-05-03 06:33:00,38.1,17.6,29.68,ENE,68,0.0,0.0,43,0.00,,---,0.00,VWS V14.01,2013-05-03 10:33:00,
2013-05-03 06:34:00,38.1,17.6,29.68,ENE,68,0.0,0.0,43,0.00,,---,0.00,VWS V14.01,2013-05-03 10:34:00,
2013-05-03 06:35:00,38.1,17.6,29.68,ENE,68,0.0,0.0,43,0.00,,---,0.00,VWS V14.01,2013-05-03 10:35:00,
2013-05-03 06:36:00,38.1,17.6,29.68,ENE,68,0.0,0.0,43,0.00,,---,0.00,VWS V14.01,2013-05-03 10:36:00,
2013-05-03 06:37:00,38.1,17.6,29.68,ENE,68,0.0,0.0,43,0.00,,---,0.00,VWS V14.01,2013-05-03 10:37:00,
2013-05-03 06:38:00,38.1,17.6,29.68,ENE,68,0.0,0.0,43,0.00,,---,0.00,VWS V14.01,2013-05-03 10:38:00,
2013-05-03 06:39:00,38.3,17.8,29.68,ENE,68,0.0,0.0,43,0.00,,---,0.00,VWS V14.01,2013-05-03 10:39:00,
2013-05-03 06:40:00,38.3,17.8,29.68,ENE,68,0.0,0.0,43,0.00,,---,0.00,VWS V14.01,2013-05-03 10:40:00,
2013-05-03 06:41:00,38.3,19.4,29.68,ENE,68,0.0,0.0,46,0.00,,---,0.00,VWS V14.01,2013-05-03 10:41:00,
2013-05-03 06:42:00,38.5,19.0,29.68,ENE,68,0.0,0.0,45,0.00,,---,0.00,VWS V14.01,2013-05-03 10:42:00,
2013-05-03 06:43:00,38.5,19.0,29.68,ENE,68,0.0,0.0,45,0.00,,---,0.00,VWS V14.01,2013-05-03 10:43:00,
2013-05-03 06:44:00,38.5,19.0,29.68,ENE,68,0.0,0.0,45,0.00,,---,0.00,VWS V14.01,2013-05-03 10:44:00,
2013-05-03 06:45:00,38.5,19.0,29.68,ENE,68,0.0,0.0,45,0.00,,---,0.00,VWS V14.01,2013-05-03 10:45:00,
2013-05-03 06:46:00,38.7,19.2,29.68,ENE,68,0.0,0.0,45,0.00,,---,0.00,VWS V14.01,2013-05-03 10:46:00,
2013-05-03 06:47:00,38.7,19.2,29.68,NE,45,0.0,0.0,45,0.00,,---,0.00,VWS V14.01,2013-05-03 10:47:00,
2013-05-03 06:48:00,38.7,18.6,29.68,NNE,22,0.0,0.0,44,0.00,,---,0.00,VWS V14.01,2013-05-03 10:48:00,
2013-05-03 06:49:00,38.8,19.3,29.68,NNE,22,0.0,0.0,45,0.00,,---,0.00,VWS V14.01,2013-05-03 10:49:00,
2013-05-03 06:50:00,38.8,19.3,29.68,NNE,22,0.0,0.0,45,0.00,,---,0.00,VWS V14.01,2013-05-03 10:50:00,
2013-05-03 06:51:00,38.8,18.8,29.68,NNE,22,0.0,0.0,44,0.00,,---,0.00,VWS V14.01,2013-05-03 10:51:00,
2013-05-03 06:52:00,38.8,18.8,29.68,NNE,22,0.0,0.0,44,0.00,,---,0.00,VWS V14.01,2013-05-03 10:52:00,
2013-05-03 06:53:00,39.0,19.0,29.68,NNE,22,0.0,0.0,44,0.00,,---,0.00,VWS V14.01,2013-05-03 10:53:00,
2013-05-03 06:54:00,39.0,19.0,29.68,NNE,22,0.0,0.0,44,0.00,,---,0.00,VWS V14.01,2013-05-03 10:54:00,
2013-05-03 06:55:00,39.2,19.1,29.68,NNE,22,0.0,0.0,44,0.00,,---,0.00,VWS V14.01,2013-05-03 10:55:00,
2013-05-03 06:56:00,39.2,19.1,29.68,NNE,22,0.0,0.0,44,0.00,,---,0.00,VWS V14.01,2013-05-03 10:56:00,
2013-05-03 06:57:00,39.4,19.8,29.68,NNE,22,0.0,0.0,45,0.00,,---,0.00,VWS V14.01,2013-05-03 10:57:00,
2013-05-03 06:58:00,39.4,19.3,29.68,NNE,22,0.0,0.0,44,0.00,,---,0.00,VWS V14.01,2013-05-03 10:58:00,
2013-05-03 06:59:00,39.4,19.3,29.68,NNE,22,0.0,0.0,44,0.00,,---,0.00,VWS V14.01,2013-05-03 10:59:00,
2013-05-03 07:00:00,39.7,19.6,29.68,NNE,22,0.0,0.0,44,0.00,,---,0.00,VWS V14.01,2013-05-03 11:00:00,
2013-05-03 07:01:00,39.7,19.6,29.68,NNE,22,0.0,0.0,44,0.00,,---,0.00,VWS V14.01,2013-05-03 11:01:00,
2013-05-03 07:02:00,39.9,20.8,29.68,NNE,22,0.0,0.0,46,0.00,,---,0.00,VWS V14.01,2013-05-03 11:02:00,
2013-05-03 07:03:00,39.9,20.8,29.68,NNE,22,0.0,0.0,46,0.00,,---,0.00,VWS V14.01,2013-05-03 11:03:00,
2013-05-03 07:04:00,39.9,19.8,29.68,NNE,22,0.0,0.0,44,0.00,,---,0.00,VWS V14.01,2013-05-03 11:04:00,
2013-05-03 07:05:00,40.1,20.5,29.68,NNE,22,0.0,0.0,45,0.00,,---,0.00,VWS V14.01,2013-05-03 11:05:00,
2013-05-03 07:06:00,40.1,20.5,29.68,NNE,22,1.3,1.3,45,0.00,,---,0.00,VWS V14.01,2013-05-03 11:06:00,
2013-05-03 07:07:00,40.1,20.5,29.68,NNE,22,0.0,1.3,45,0.00,,---,0.00,VWS V14.01,2013-05-03 11:07:00,
2013-05-03 07:08:00,40.1,20.5,29.68,NNE,22,0.0,0.0,45,0.00,,---,0.00,VWS V14.01,2013-05-03 11:08:00,
2013-05-03 07:09:00,40.6,21.0,29.68,NNE,22,0.0,0.0,45,0.00,,---,0.00,VWS V14.01,2013-05-03 11:09:00,
2013-05-03 07:10:00,40.6,21.0,29.68,NNE,22,0.0,0.0,45,0.00,,---,0.00,VWS V14.01,2013-05-03 11:10:00,
2013-05-03 07:11:00,40.6,20.5,29.68,NNE,22,0.0,0.0,44,0.00,,---,0.00,VWS V14.01,2013-05-03 11:11:00,
2013-05-03 07:12:00,40.6,20.5,29.68,NNE,22,0.0,0.0,44,0.00,,---,0.00,VWS V14.01,2013-05-03 11:12:00,
2013-05-03 07:13:00,41.0,20.8,29.68,NNE,22,0.0,0.0,44,0.00,,---,0.00,VWS V14.01,2013-05-03 11:13:00,
2013-05-03 07:14:00,41.4,21.6,29.68,NNE,22,0.0,0.0,45,0.00,,---,0.00,VWS V14.01,2013-05-03 11:14:00,
2013-05-03 07:15:00,41.4,21.6,29.68,NNE,22,0.0,0.0,45,0.00,,---,0.00,VWS V14.01,2013-05-03 11:15:00,
2013-05-03 07:16:00,41.7,23.0,29.68,NNE,22,0.0,0.0,47,0.00,,---,0.00,VWS V14.01,2013-05-03 11:16:00,
2013-05-03 07:17:00,41.7,23.0,29.68,NNE,22,0.0,0.0,47,0.00,,---,0.00,VWS V14.01,2013-05-03 11:17:00,
2013-05-03 07:18:00,42.3,24.0,29.68,NNE,22,0.0,0.0,48,0.00,,---,0.00,VWS V14.01,2013-05-03 11:18:00,
2013-05-03 07:19:00,42.3,24.0,29.68,NNE,22,0.0,0.0,48,0.00,,---,0.00,VWS V14.01,2013-05-03 11:19:00,
2013-05-03 07:20:00,42.3,24.0,29.68,NNE,22,0.0,0.0,48,0.00,,---,0.00,VWS V14.01,2013-05-03 11:20:00,
2013-05-03 07:21:00,42.8,24.5,29.68,NNE,22,0.0,0.0,48,0.00,,---,0.00,VWS V14.01,2013-05-03 11:21:00,
2013-05-03 07:22:00,42.8,24.5,29.68,NNE,22,0.0,0.0,48,0.00,,---,0.00,VWS V14.01,2013-05-03 11:22:00,
2013-05-03 07:23:00,43.3,24.5,29.68,NNE,22,0.0,0.0,47,0.00,,---,0.00,VWS V14.01,2013-05-03 11:23:00,
2013-05-03 07:24:00,43.3,24.5,29.68,NNE,22,0.0,0.0,47,0.00,,---,0.00,VWS V14.01,2013-05-03 11:24:00,
2013-05-03 07:25:00,43.9,25.5,29.68,NNE,22,1.6,1.6,48,0.00,,---,0.00,VWS V14.01,2013-05-03 11:25:00,
2013-05-03 07:26:00,43.9,25.5,29.68,NNE,22,1.3,1.6,48,0.00,,---,0.00,VWS V14.01,2013-05-03 11:26:00,
2013-05-03 07:27:00,44.6,24.6,29.68,ESE,112,2.0,2.0,45,0.00,,---,0.00,VWS V14.01,2013-05-03 11:27:00,
2013-05-03 07:28:00,44.6,24.6,29.68,ENE,68,3.1,3.1,45,0.00,,---,0.00,VWS V14.01,2013-05-03 11:28:00,
2013-05-03 07:29:00,44.6,24.6,29.68,WSW,248,0.0,3.1,45,0.00,,---,0.00,VWS V14.01,2013-05-03 11:29:00,
2013-05-03 07:30:00,45.9,25.2,29.68,SW,225,3.1,3.8,44,0.00,,---,0.00,VWS V14.01,2013-05-03 11:30:00,
2013-05-03 07:31:00,45.9,25.2,29.68,WSW,248,0.0,3.1,44,0.00,,---,0.00,VWS V14.01,2013-05-03 11:31:00,
2013-05-03 07:32:00,46.8,25.5,29.68,WNW,292,0.0,0.0,43,0.00,,---,0.00,VWS V14.01,2013-05-03 11:32:00,
2013-05-03 07:33:00,46.8,25.5,29.68,WNW,292,2.5,2.5,43,0.00,,---,0.00,VWS V14.01,2013-05-03 11:33:00,
2013-05-03 07:34:00,46.9,25.6,29.68,ESE,112,2.5,2.5,43,0.00,,---,0.00,VWS V14.01,2013-05-03 11:34:00,
2013-05-03 07:35:00,46.9,25.6,29.68,NE,45,3.6,3.6,43,0.00,,---,0.00,VWS V14.01,2013-05-03 11:35:00,
2013-05-03 07:36:00,47.3,25.4,29.68,WSW,248,3.1,3.6,42,0.00,,---,0.00,VWS V14.01,2013-05-03 11:36:00,
2013-05-03 07:37:00,47.7,25.7,29.68,WSW,248,2.7,3.1,42,0.00,,---,0.00,VWS V14.01,2013-05-03 11:37:00,
2013-05-03 07:38:00,47.7,25.7,29.68,WNW,292,5.8,5.8,42,0.00,,---,0.00,VWS V14.01,2013-05-03 11:38:00,
2013-05-03 07:39:00,48.2,25.6,29.68,West,270,2.9,5.8,41,0.00,,---,0.00,VWS V14.01,2013-05-03 11:39:00,
2013-05-03 07:40:00,48.2,25.6,29.68,West,270,2.5,2.9,41,0.00,,---,0.00,VWS V14.01,2013-05-03 11:40:00,
2013-05-03 07:41:00,48.6,25.4,29.68,West,270,2.5,2.5,40,0.00,,---,0.00,VWS V14.01,2013-05-03 11:41:00,
2013-05-03 07:42:00,48.6,25.4,29.68,WNW,292,2.0,2.5,40,0.00,,---,0.00,VWS V14.01,2013-05-03 11:42:00,
2013-05-03 07:43:00,49.1,25.8,29.68,South,180,2.5,2.5,40,0.00,,---,0.00,VWS V14.01,2013-05-03 11:43:00,
2013-05-03 07:44:00,49.5,26.2,29.68,ESE,112,3.6,3.6,40,0.00,,---,0.00,VWS V14.01,2013-05-03 11:44:00,
2013-05-03 07:45:00,49.5,26.2,29.68,WNW,292,3.4,3.6,40,0.00,,---,0.00,VWS V14.01,2013-05-03 11:45:00,
2013-05-03 07:46:00,50.0,26.6,29.68,West,270,3.4,3.4,40,0.00,,---,0.00,VWS V14.01,2013-05-03 11:46:00,
2013-05-03 07:47:00,50.0,26.6,29.68,WNW,292,3.1,3.4,40,0.00,,---,0.00,VWS V14.01,2013-05-03 11:47:00,
2013-05-03 07:48:00,50.5,27.1,29.68,WSW,248,3.4,3.4,40,0.00,,---,0.00,VWS V14.01,2013-05-03 11:48:00,
2013-05-03 07:49:00,50.5,27.1,29.68,West,270,1.3,3.4,40,0.00,,---,0.00,VWS V14.01,2013-05-03 11:49:00,
2013-05-03 07:50:00,51.1,27.6,29.68,WNW,292,2.5,2.5,40,0.00,,---,0.00,VWS V14.01,2013-05-03 11:50:00,
2013-05-03 07:51:00,51.1,27.6,29.68,WNW,292,3.4,3.4,40,0.00,,---,0.00,VWS V14.01,2013-05-03 11:51:00,
2013-05-03 07:52:00,51.1,27.0,29.68,WNW,292,2.5,3.4,39,0.00,,---,0.00,VWS V14.01,2013-05-03 11:52:00,
2013-05-03 07:53:00,51.6,27.5,29.68,WSW,248,3.4,3.4,39,0.00,,---,0.00,VWS V14.01,2013-05-03 11:53:00,
2013-05-03 07:54:00,51.6,27.5,29.68,WNW,292,3.6,3.6,39,0.00,,---,0.00,VWS V14.01,2013-05-03 11:54:00,
2013-05-03 07:55:00,52.0,27.8,29.68,WNW,292,2.7,3.6,39,0.00,,---,0.00,VWS V14.01,2013-05-03 11:55:00,
2013-05-03 07:56:00,52.0,27.8,29.68,WNW,292,4.3,4.3,39,0.00,,---,0.00,VWS V14.01,2013-05-03 11:56:00,
2013-05-03 08:02:00,53.8,28.8,29.68,SW,225,4.7,4.7,38,0.00,,---,0.00,VWS V14.01,2013-05-03 12:02:00,
2013-05-03 08:03:00,53.8,28.8,29.68,West,270,3.1,4.7,38,0.00,,---,0.00,VWS V14.01,2013-05-03 12:03:00,
2013-05-03 08:04:00,54.0,29.0,29.68,WNW,292,5.8,5.8,38,0.00,,---,0.00,VWS V14.01,2013-05-03 12:04:00,
2013-05-03 08:05:00,54.0,29.0,29.68,WNW,292,2.2,5.8,38,0.00,,---,0.00,VWS V14.01,2013-05-03 12:05:00,
2013-05-03 08:06:00,53.6,28.0,29.68,WSW,248,2.7,2.7,37,0.00,,---,0.00,VWS V14.01,2013-05-03 12:06:00,
2013-05-03 08:07:00,54.0,28.3,29.68,WNW,292,4.0,4.0,37,0.00,,---,0.00,VWS V14.01,2013-05-03 12:07:00,
2013-05-03 12:22:00,78.1,26.7,29.59,WNW,292,6.5,6.5,15,0.00,,---,0.00,VWS V14.01,2013-05-03 16:22:00,
2013-05-03 12:23:00,78.1,26.7,29.59,WNW,292,3.4,6.5,15,0.00,,---,0.00,VWS V14.01,2013-05-03 16:23:00,
2013-05-03 12:24:00,77.4,26.1,29.59,WSW,248,3.1,3.4,15,0.00,,---,0.00,VWS V14.01,2013-05-03 16:24:00,
2013-05-03 12:25:00,78.4,31.5,29.59,SW,225,3.6,3.6,18,0.00,,---,0.00,VWS V14.01,2013-05-03 16:25:00,
2013-05-03 12:26:00,78.4,31.5,29.59,SE,135,3.1,3.6,18,0.00,,---,0.00,VWS V14.01,2013-05-03 16:26:00,
2013-05-03 12:27:00,78.8,27.3,29.59,WSW,248,3.1,3.1,15,0.00,,---,0.00,VWS V14.01,2013-05-03 16:27:00,
2013-05-03 12:28:00,78.8,27.3,29.59,SW,225,2.7,3.1,15,0.00,,---,0.00,VWS V14.01,2013-05-03 16:28:00,
2013-05-03 12:29:00,79.3,27.7,29.59,SW,225,3.1,3.1,15,0.00,,---,0.00,VWS V14.01,2013-05-03 16:29:00,
2013-05-03 12:30:00,79.3,27.7,29.59,SW,225,2.9,3.1,15,0.00,,---,0.00,VWS V14.01,2013-05-03 16:30:00,
2013-05-03 12:31:00,79.5,30.9,29.59,West,270,3.6,3.6,17,0.00,,---,0.00,VWS V14.01,2013-05-03 16:31:00,
2013-05-03 12:32:00,79.9,31.2,29.59,West,270,2.7,2.7,17,0.00,,---,0.00,VWS V14.01,2013-05-03 16:32:00,
2013-05-03 12:33:00,79.9,31.2,29.59,West,270,2.5,2.7,17,0.00,,---,0.00,VWS V14.01,2013-05-03 16:33:00,
2013-05-03 12:34:00,79.9,28.1,29.59,ESE,112,1.6,2.5,15,0.00,,---,0.00,VWS V14.01,2013-05-03 16:34:00,
2013-05-03 12:35:00,79.9,28.1,29.59,WSW,248,2.9,2.9,15,0.00,,---,0.00,VWS V14.01,2013-05-03 16:35:00,
2013-05-03 12:36:00,79.3,27.7,29.59,WSW,248,2.9,2.9,15,0.00,,---,0.00,VWS V14.01,2013-05-03 16:36:00,
2013-05-03 12:37:00,79.3,27.7,29.59,WSW,248,2.7,2.9,15,0.00,,---,0.00,VWS V14.01,2013-05-03 16:37:00,
2013-05-03 12:38:00,79.0,27.4,29.59,SE,135,4.9,4.9,15,0.00,,---,0.00,VWS V14.01,2013-05-03 16:38:00,
2013-05-03 12:39:00,79.0,27.4,29.56,SE,135,4.9,4.9,15,0.00,,---,0.00,VWS V14.01,2013-05-03 16:39:00,
2013-05-03 12:40:00,78.4,27.0,29.56,ESE,112,4.3,4.9,15,0.00,,---,0.00,VWS V14.01,2013-05-03 16:40:00,
2013-05-03 12:41:00,78.3,26.9,29.56,SSE,158,2.5,4.3,15,0.00,,---,0.00,VWS V14.01,2013-05-03 16:41:00,
2013-05-03 12:42:00,78.3,26.9,29.56,ESE,112,4.3,4.3,15,0.00,,---,0.00,VWS V14.01,2013-05-03 16:42:00,
2013-05-03 12:43:00,78.8,27.3,29.56,ESE,112,4.3,4.3,15,0.00,,---,0.00,VWS V14.01,2013-05-03 16:43:00,
2013-05-03 12:44:00,78.8,27.3,29.56,ESE,112,3.8,4.3,15,0.00,,---,0.00,VWS V14.01,2013-05-03 16:44:00,
2013-05-03 12:45:00,77.7,23.0,29.56,SE,135,3.4,3.8,13,0.00,,---,0.00,VWS V14.01,2013-05-03 16:45:00,
2013-05-03 12:46:00,77.5,26.3,29.56,East,90,4.9,4.9,15,0.00,,---,0.00,VWS V14.01,2013-05-03 16:46:00,
2013-05-03 12:47:00,77.5,26.3,29.56,SE,135,3.1,3.1,15,0.00,,---,0.00,VWS V14.01,2013-05-03 16:47:00,
2013-05-03 12:48:00,77.4,22.7,29.56,ESE,112,6.5,6.5,13,0.00,,---,0.00,VWS V14.01,2013-05-03 16:48:00,
2013-05-03 12:49:00,77.4,22.7,29.56,West,270,2.0,6.5,13,0.00,,---,0.00,VWS V14.01,2013-05-03 16:49:00,
2013-05-03 12:50:00,78.3,26.9,29.56,South,180,2.9,2.9,15,0.00,,---,0.00,VWS V14.01,2013-05-03 16:50:00,
2013-05-03 12:51:00,78.3,26.9,29.56,SE,135,4.7,4.7,15,0.00,,---,0.00,VWS V14.01,2013-05-03 16:51:00,
2013-05-03 12:52:00,78.4,27.0,29.56,WSW,248,2.0,2.2,15,0.00,,---,0.00,VWS V14.01,2013-05-03 16:52:00,
2013-05-03 12:53:00,78.4,27.0,29.56,WSW,248,1.3,2.2,15,0.00,,---,0.00,VWS V14.01,2013-05-03 16:53:00,
2013-05-03 12:54:00,79.3,27.7,29.56,WSW,248,4.3,4.3,15,0.00,,---,0.00,VWS V14.01,2013-05-03 16:54:00,
2013-05-03 12:55:00,79.2,22.2,29.56,WNW,292,3.8,4.3,12,0.00,,---,0.00,VWS V14.01,2013-05-03 16:55:00,
2013-05-03 12:56:00,79.2,22.2,29.56,SW,225,3.4,3.8,12,0.00,,---,0.00,VWS V14.01,2013-05-03 16:56:00,
2013-05-03 12:57:00,79.7,28.0,29.56,SE,135,3.1,3.1,15,0.00,,---,0.00,VWS V14.01,2013-05-03 16:57:00,
2013-05-03 12:58:00,79.7,28.0,29.56,ESE,112,3.8,3.8,15,0.00,,---,0.00,VWS V14.01,2013-05-03 16:58:00,
2013-05-03 12:59:00,79.2,27.6,29.56,SSW,202,1.6,3.8,15,0.00,,---,0.00,VWS V14.01,2013-05-03 16:59:00,
2013-05-03 13:00:00,79.2,27.6,29.56,SE,135,3.1,3.1,15,0.00,,---,0.00,VWS V14.01,2013-05-03 17:00:00,
2013-05-03 13:01:00,79.7,28.0,29.56,SW,225,2.7,3.1,15,0.00,,---,0.00,VWS V14.01,2013-05-03 17:01:00,
2013-05-03 13:02:00,80.1,28.3,29.56,SW,225,2.5,2.5,15,0.00,,---,0.00,VWS V14.01,2013-05-03 17:02:00,
2013-05-03 13:03:00,80.1,28.3,29.56,ENE,68,1.3,2.5,15,0.00,,---,0.00,VWS V14.01,2013-05-03 17:03:00,
2013-05-03 13:04:00,79.7,28.0,29.56,ESE,112,0.0,1.3,15,0.00,,---,0.00,VWS V14.01,2013-05-03 17:04:00,
2013-05-03 13:05:00,79.7,28.0,29.56,ESE,112,2.0,2.0,15,0.00,,---,0.00,VWS V14.01,2013-05-03 17:05:00,
2013-05-03 13:06:00,79.7,28.0,29.56,SSE,158,2.7,2.7,15,0.00,,---,0.00,VWS V14.01,2013-05-03 17:06:00,
2013-05-03 13:07:00,79.7,28.0,29.56,SE,135,4.3,4.3,15,0.00,,---,0.00,VWS V14.01,2013-05-03 17:07:00,
2013-05-03 13:08:00,79.2,27.6,29.56,ESE,112,3.6,4.3,15,0.00,,---,0.00,VWS V14.01,2013-05-03 17:08:00,
2013-05-03 13:09:00,79.2,27.6,29.56,SSW,202,2.7,3.6,15,0.00,,---,0.00,VWS V14.01,2013-05-03 17:09:00,
2013-05-03 13:10:00,78.8,27.3,29.56,East,90,1.3,2.7,15,0.00,,---,0.00,VWS V14.01,2013-05-03 17:10:00,
2013-05-03 13:11:00,78.8,22.0,29.56,East,90,0.0,1.3,12,0.00,,---,0.00,VWS V14.01,2013-05-03 17:11:00,
2013-05-03 13:12:00,78.8,22.0,29.56,ESE,112,4.9,4.9,12,0.00,,---,0.00,VWS V14.01,2013-05-03 17:12:00,
2013-05-03 13:13:00,79.2,27.6,29.56,SW,225,2.9,4.9,15,0.00,,---,0.00,VWS V14.01,2013-05-03 17:13:00,
2013-05-03 13:14:00,79.2,27.6,29.56,WNW,292,4.3,4.3,15,0.00,,---,0.00,VWS V14.01,2013-05-03 17:14:00,
2013-05-03 13:15:00,79.2,22.2,29.56,West,270,2.7,4.3,12,0.00,,---,0.00,VWS V14.01,2013-05-03 17:15:00,
2013-05-03 13:16:00,79.2,22.2,29.56,SE,135,2.5,2.7,12,0.00,,---,0.00,VWS V14.01,2013-05-03 17:16:00,
2013-05-03 13:17:00,80.2,28.4,29.56,ESE,112,4.9,4.9,15,0.00,,---,0.00,VWS V14.01,2013-05-03 17:17:00,
2013-05-03 13:18:00,79.9,22.8,29.56,SW,225,3.4,4.9,12,0.00,,---,0.00,VWS V14.01,2013-05-03 17:18:00,
2013-05-03 13:19:00,79.9,22.8,29.56,WSW,248,2.5,3.4,12,0.00,,---,0.00,VWS V14.01,2013-05-03 17:19:00,
2013-05-03 13:20:00,80.2,28.4,29.56,West,270,3.8,3.8,15,0.00,,---,0.00,VWS V14.01,2013-05-03 17:20:00,
2013-05-03 13:21:00,80.2,28.4,29.56,SW,225,2.0,3.8,15,0.00,,---,0.00,VWS V14.01,2013-05-03 17:21:00,
2013-05-03 13:22:00,80.6,27.0,29.56,South,180,2.9,2.9,14,0.00,,---,0.00,VWS V14.01,2013-05-03 17:22:00,
2013-05-03 13:23:00,80.6,27.0,29.56,WSW,248,3.1,3.1,14,0.00,,---,0.00,VWS V14.01,2013-05-03 17:23:00,
2013-05-03 13:24:00,80.8,27.2,29.56,SW,225,0.0,3.1,14,0.00,,---,0.00,VWS V14.01,2013-05-03 17:24:00,
2013-05-03 13:25:00,80.4,23.2,29.56,West,270,2.0,2.0,12,0.00,,---,0.00,VWS V14.01,2013-05-03 17:25:00,
2013-05-03 13:26:00,80.4,23.2,29.56,SSW,202,2.5,2.5,12,0.00,,---,0.00,VWS V14.01,2013-05-03 17:26:00,
2013-05-03 13:27:00,80.8,23.5,29.56,SSE,158,2.5,2.5,12,0.00,,---,0.00,VWS V14.01,2013-05-03 17:27:00,
2013-05-03 13:28:00,80.8,23.5,29.56,SSW,202,1.3,2.5,12,0.00,,---,0.00,VWS V14.01,2013-05-03 17:28:00,
2013-05-03 13:29:00,81.0,23.6,29.56,SSE,158,2.7,2.7,12,0.00,,---,0.00,VWS V14.01,2013-05-03 17:29:00,
2013-05-03 13:30:00,81.0,23.6,29.56,SSE,158,2.0,2.7,12,0.00,,---,0.00,VWS V14.01,2013-05-03 17:30:00,
2013-05-03 13:31:00,80.1,22.9,29.56,East,90,2.5,2.5,12,0.00,,---,0.00,VWS V14.01,2013-05-03 17:31:00,
2013-05-03 13:32:00,80.1,22.9,29.56,West,270,2.0,2.0,12,0.00,,---,0.00,VWS V14.01,2013-05-03 17:32:00,
2013-05-03 13:33:00,80.1,22.9,29.56,SE,135,3.1,3.1,12,0.00,,---,0.00,VWS V14.01,2013-05-03 17:33:00,
2013-05-03 13:34:00,80.1,22.9,29.56,ESE,112,3.1,4.9,12,0.00,,---,0.00,VWS V14.01,2013-05-03 17:34:00,
2013-05-03 13:35:00,80.1,22.9,29.56,South,180,4.0,4.0,12,0.00,,---,0.00,VWS V14.01,2013-05-03 17:35:00,
2013-05-03 13:36:00,79.9,22.8,29.56,ESE,112,3.1,4.0,12,0.00,,---,0.00,VWS V14.01,2013-05-03 17:36:00,
2013-05-03 13:37:00,79.9,22.8,29.56,SE,135,2.7,2.7,12,0.00,,---,0.00,VWS V14.01,2013-05-03 17:37:00,
2013-05-03 21:23:00,52.7,25.1,29.50,East,90,0.0,0.0,34,0.00,,---,0.00,VWS V14.01,2013-05-04 01:23:00,
2013-05-03 21:28:00,52.5,26.4,29.50,NW,315,2.2,2.2,36,0.00,,---,0.00,VWS V14.01,2013-05-04 01:28:00,
2013-05-03 21:33:00,52.3,26.2,29.50,NW,315,0.0,0.0,36,0.00,,---,0.00,VWS V14.01,2013-05-04 01:33:00,
2013-05-03 21:38:00,51.6,26.9,29.50,ENE,68,3.6,3.6,38,0.00,,---,0.00,VWS V14.01,2013-05-04 01:38:00,
2013-05-03 21:43:00,50.9,28.6,29.50,NNW,338,2.0,2.0,42,0.00,,---,0.00,VWS V14.01,2013-05-04 01:43:00,
2013-05-03 21:48:00,50.9,26.8,29.50,NE,45,0.9,0.9,39,0.00,,---,0.00,VWS V14.01,2013-05-04 01:48:00,
2013-05-03 21:53:00,50.7,27.9,29.50,ENE,68,2.5,2.5,41,0.00,,---,0.00,VWS V14.01,2013-05-04 01:53:00,
2013-05-03 21:58:00,50.7,26.7,29.50,ENE,68,1.1,2.7,39,0.00,,---,0.00,VWS V14.01,2013-05-04 01:58:00,
2013-05-03 22:03:00,50.4,27.0,29.50,East,90,0.0,0.0,40,0.00,,---,0.00,VWS V14.01,2013-05-04 02:03:00,
2013-05-03 22:08:00,50.4,27.0,29.50,ESE,112,1.3,1.6,40,0.00,,---,0.00,VWS V14.01,2013-05-04 02:08:00,
2013-05-03 22:13:00,49.8,27.1,29.50,ENE,68,2.2,2.2,41,0.00,,---,0.00,VWS V14.01,2013-05-04 02:13:00,
2013-05-03 22:18:00,49.6,26.3,29.50,ENE,68,0.0,0.0,40,0.00,,---,0.00,VWS V14.01,2013-05-04 02:18:00,
2013-05-03 22:23:00,49.5,26.2,29.50,ENE,68,0.0,0.0,40,0.00,,---,0.00,VWS V14.01,2013-05-04 02:23:00,
2013-05-03 22:28:00,49.3,26.0,29.50,ENE,68,0.0,0.0,40,0.00,,---,0.00,VWS V14.01,2013-05-04 02:28:00,
2013-05-03 22:33:00,48.9,26.3,29.50,ENE,68,0.0,0.0,41,0.00,,---,0.00,VWS V14.01,2013-05-04 02:33:00,
2013-05-03 22:38:00,48.7,26.1,29.50,ENE,68,0.0,0.0,41,0.00,,---,0.00,VWS V14.01,2013-05-04 02:38:00,
2013-05-03 22:43:00,48.6,26.0,29.50,ENE,68,0.0,0.0,41,0.00,,---,0.00,VWS V14.01,2013-05-04 02:43:00,
2013-05-03 22:48:00,48.4,25.8,29.50,ENE,68,0.0,0.0,41,0.00,,---,0.00,VWS V14.01,2013-05-04 02:48:00,
2013-05-03 22:53:00,48.2,26.2,29.50,ENE,68,0.0,0.0,42,0.00,,---,0.00,VWS V14.01,2013-05-04 02:53:00,
2013-05-03 22:58:00,48.0,26.0,29.50,ENE,68,0.0,0.0,42,0.00,,---,0.00,VWS V14.01,2013-05-04 02:58:00,
2013-05-03 23:03:00,47.8,25.9,29.50,ENE,68,0.0,0.0,42,0.00,,---,0.00,VWS V14.01,2013-05-04 03:03:00,
2013-05-03 23:08:00,47.5,25.5,29.50,ENE,68,0.0,0.0,42,0.00,,---,0.00,VWS V14.01,2013-05-04 03:08:00,
2013-05-03 23:13:00,47.3,25.4,29.50,ENE,68,0.0,0.0,42,0.00,,---,0.00,VWS V14.01,2013-05-04 03:13:00,
2013-05-03 23:18:00,46.9,25.1,29.50,ENE,68,0.0,0.0,42,0.00,,---,0.00,VWS V14.01,2013-05-04 03:18:00,
2013-05-03 23:23:00,46.8,25.5,29.50,ENE,68,0.0,0.0,43,0.00,,---,0.00,VWS V14.01,2013-05-04 03:23:00,
2013-05-03 23:28:00,46.6,25.3,29.50,ENE,68,0.0,0.0,43,0.00,,---,0.00,VWS V14.01,2013-05-04 03:28:00,
2013-05-03 23:33:00,46.4,25.1,29.50,ENE,68,0.0,0.0,43,0.00,,---,0.00,VWS V14.01,2013-05-04 03:33:00,
2013-05-03 23:38:00,46.0,25.4,29.50,ENE,68,0.0,0.0,44,0.00,,---,0.00,VWS V14.01,2013-05-04 03:38:00,
2013-05-03 23:43:00,45.9,25.2,29.50,ENE,68,0.0,0.0,44,0.00,,---,0.00,VWS V14.01,2013-05-04 03:43:00,
2013-05-03 23:48:00,45.7,26.1,29.50,ENE,68,0.0,0.0,46,0.00,,---,0.00,VWS V14.01,2013-05-04 03:48:00,
2013-05-03 23:53:00,45.5,25.4,29.53,ENE,68,0.0,0.0,45,0.00,,---,0.00,VWS V14.01,2013-05-04 03:53:00,
2013-05-03 23:58:00,45.3,25.2,29.53,ENE,68,0.0,0.0,45,0.00,,---,0.00,VWS V14.01,2013-05-04 03:58:00,